Wind_Speed
15 16 15 15 15 15 18 18 17 16 15 15 14 13 12 11 10 10 9 8 8 8 8 7 7 6 5 4 2 1 1 1 2 3 4 4 4 5 4 4 4 4 4 4 4 3 2 2 2
14 15 14 14 16 16 18 17 16 15 14 15 13 13 12 11 10 10 10 9 9 8 8 7 6 6 5 4 3 2 1 1 2 3 4 4 5 5 5 5 5 5 5 5 4 3 3 3 2
13 14 15 16 16 17 17 17 16 15 14 13 13 13 12 12 11 11 11 9 9 9 7 6 6 6 5 5 4 3 2 1 2 3 4 4 4 4 5 5 5 5 5 5 4 4 3 3 2
14 15 16 15 16 18 17 18 18 16 13 12 13 13 13 12 11 10 10 9 8 8 8 8 7 6 6 5 4 4 3 1 2 3 4 4 4 5 5 5 5 5 5 4 4 4 4 4 3
13 14 15 16 17 18 18 18 17 16 15 13 12 12 13 13 11 10 10 9 8 7 7 7 7 6 5 5 4 4 4 1 2 3 3 3 4 4 5 6 5 5 4 4 4 4 4 4 4
12 13 14 15 16 17 17 16 15 15 15 14 14 14 13 13 12 11 10 9 8 7 7 7 7 6 5 4 4 3 2 2 0 2 3 3 3 4 4 5 4 5 5 4 5 5 5 4 4
12 12 13 14 14 15 16 15 15 15 15 15 15 14 14 13 13 12 11 10 8 8 7 7 7 6 5 4 4 3 1 1 0 0 2 2 3 4 4 5 5 5 5 5 5 6 6 5 5
11 11 13 13 13 13 14 14 14 15 15 15 15 14 14 13 13 13 11 10 9 7 7 8 7 6 5 4 4 3 2 0 0 1 1 2 2 3 4 4 5 5 6 5 5 6 6 5 5
10 10 10 11 12 13 12 13 14 15 14 15 15 14 14 14 13 12 11 10 9 8 7 8 7 6 5 5 5 4 3 2 1 1 1 1 2 2 3 4 5 6 5 5 5 6 6 6 6
9 8 10 11 11 12 12 13 14 14 15 15 14 14 14 14 13 12 11 10 9 9 8 8 7 7 6 6 5 5 4 3 2 1 1 1 2 2 3 3 4 6 6 6 6 6 6 7 6
8 9 10 10 11 12 12 13 14 14 14 14 14 14 14 14 13 13 12 10 10 10 9 8 7 7 7 6 6 5 5 4 3 2 1 2 2 2 2 3 4 4 5 6 6 6 6 6 7
6 6 8 9 10 11 12 13 13 14 13 13 14 13 13 13 13 13 12 10 10 10 9 9 8 7 7 7 7 6 5 4 3 2 0 1 1 2 2 3 4 5 5 5 6 6 6 7 7
5 5 6 8 9 10 11 12 14 13 12 14 13 13 13 13 13 13 12 10 10 10 10 9 8 8 7 7 7 6 5 4 3 1 1 1 1 2 3 4 4 4 4 4 5 6 7 7 7
5 5 7 8 9 10 11 12 13 14 14 14 13 12 12 12 13 12 11 10 10 10 10 9 9 8 8 8 8 7 5 4 3 2 1 1 1 2 3 4 3 3 4 4 4 5 7 7 8
5 4 5 7 8 9 9 11 12 13 14 14 14 13 12 11 11 12 11 10 9 9 9 8 8 8 7 7 8 7 6 4 3 2 2 1 1 2 3 4 2 2 3 4 4 5 6 7 7
3 3 4 5 6 8 9 11 11 13 13 14 13 13 12 11 11 11 12 10 9 8 8 8 8 8 8 7 7 8 7 6 5 3 3 2 2 3 3 4 3 3 4 4 4 4 5 6 7
1 2 2 3 5 7 8 9 10 12 13 12 12 12 12 11 11 11 11 11 9 8 8 8 8 8 7 7 7 7 7 6 6 5 4 3 3 3 4 4 4 4 4 4 4 5 6 6 7
1 1 1 2 4 7 7 9 9 11 11 11 11 11 11 12 11 11 11 11 9 8 8 9 9 8 7 6 6 7 7 7 7 5 4 4 3 4 4 5 5 4 4 4 4 5 6 6 6
1 1 1 2 4 6 7 9 10 10 11 11 11 11 11 12 11 11 10 10 9 9 9 9 9 8 7 6 6 6 6 6 7 6 5 5 4 4 5 6 6 5 4 5 5 6 6 7 7
2 2 2 1 3 5 8 9 10 10 11 11 12 11 11 11 11 11 11 10 9 8 8 9 8 8 8 7 7 6 6 6 6 6 5 5 5 5 6 6 6 6 5 6 6 7 7 7 7
4 3 3 3 5 7 9 9 11 10 11 11 11 12 12 11 10 10 11 11 10 10 10 10 9 9 8 7 7 6 6 6 6 6 6 5 5 5 6 7 7 8 8 7 6 7 8 8 8
5 4 4 5 7 8 10 10 10 11 11 11 11 12 11 10 11 12 11 11 11 11 11 11 11 10 9 8 8 8 7 7 7 6 6 6 7 7 7 8 8 8 8 8 8 8 9 9 9
7 6 7 7 8 7 8 11 10 11 12 11 11 11 11 11 11 11 11 11 11 11 12 12 11 11 10 10 9 9 9 8 8 8 7 8 8 9 9 9 10 10 10 10 10 10 10 11 11
8 7 7 7 8 8 9 10 9 10 11 10 10 12 11 11 11 12 11 10 10 11 12 12 11 11 11 10 10 10 10 9 9 8 8 8 9 10 10 10 10 10 10 10 11 11 12 12 12
8 8 8 7 8 9 10 11 10 10 11 9 8 10 11 11 12 12 13 11 11 11 11 12 12 11 11 11 10 10 10 9 9 9 10 11 11 12 12 11 10 10 11 11 12 12 12 13 13
9 10 10 9 9 10 11 11 10 10 8 8 7 9 10 11 12 13 14 15 13 13 12 12 11 12 12 11 11 11 10 10 10 11 11 12 12 13 12 11 12 12 12 12 13 13 13 13 14
11 12 11 11 10 10 11 11 11 10 9 9 8 10 10 11 12 12 13 15 15 15 13 12 12 12 13 12 12 12 11 11 12 12 13 13 13 14 14 13 13 12 13 13 13 13 14 14 14
12 11 12 11 11 12 13 12 12 10 9 9 10 11 10 11 12 13 13 14 15 15 15 14 14 13 13 13 13 12 12 13 13 13 14 14 14 14 15 14 14 14 14 14 14 14 14 15 16
13 13 13 12 12 13 14 13 13 12 10 11 11 12 12 12 13 14 14 15 15 15 15 15 14 13 14 14 14 14 14 13 13 14 14 15 15 16 16 16 16 16 16 15 15 16 16 16 17
14 14 13 13 14 14 15 15 14 13 11 11 12 13 13 13 14 14 15 15 15 15 15 15 15 14 15 15 15 15 15 14 15 15 15 16 17 17 18 18 17 18 18 17 17 17 17 17 17
Wind_Direction
81 79 72 66 59 56 53 48 46 46 46 43 40 36 34 35 39 43 42 47 46 45 40 39 38 37 33 25 23 24 39 200 211 208 204 201 198 196 196 204 208 204 204 204 204 209 203 193 176
78 76 71 68 65 59 55 49 42 40 43 42 38 38 38 40 43 45 46 50 46 44 37 34 36 37 33 33 33 23 20 249 220 206 201 197 197 205 204 214 218 211 213 213 208 200 188 199 205
76 73 71 72 68 62 56 47 38 35 43 42 37 37 43 43 44 44 46 52 48 43 38 38 37 36 34 39 42 41 28 334 226 199 197 202 202 207 213 219 221 217 213 207 209 211 199 209 198
74 71 63 63 63 59 52 43 34 33 33 41 38 37 43 44 42 40 45 55 53 49 44 39 35 33 33 32 33 37 34 33 193 186 196 205 209 216 220 221 221 227 218 211 214 215 212 219 214
70 67 56 56 55 50 45 39 34 29 26 33 40 36 40 41 39 33 36 50 54 48 44 37 34 32 33 35 30 33 34 43 184 198 212 218 220 222 227 219 224 222 214 216 222 220 225 231 218
76 67 61 63 58 49 45 37 32 31 28 35 38 35 34 36 36 33 31 38 45 44 40 29 29 32 33 33 29 27 36 42 340 221 226 224 230 232 233 224 229 222 217 224 229 228 222 222 218
69 59 53 53 51 49 46 39 33 32 29 31 32 30 29 36 37 36 37 40 39 39 37 31 27 29 34 35 30 19 1 45 17 251 239 226 235 244 239 232 233 226 229 235 241 228 218 216 213
68 56 51 48 42 46 45 34 34 35 30 29 30 30 30 35 37 35 37 43 37 32 30 29 29 34 33 31 22 13 4 165 293 278 236 223 232 236 229 223 229 232 236 239 237 221 219 216 215
68 57 48 44 39 38 35 32 30 29 28 28 31 31 31 32 36 36 38 39 35 33 29 27 28 30 33 38 34 30 30 12 298 282 226 211 233 236 240 230 230 239 241 244 242 232 225 220 217
63 54 45 42 35 36 35 34 30 27 25 26 31 32 32 35 37 35 35 35 35 35 31 30 31 31 34 42 44 38 30 22 353 274 220 205 198 215 245 242 241 243 242 239 238 235 221 223 221
61 54 49 47 44 39 30 32 32 23 27 27 29 31 33 35 35 34 33 37 37 35 31 32 32 30 33 35 38 34 26 18 7 327 213 232 224 210 234 242 247 247 249 244 233 229 225 221 222
68 51 47 48 48 40 30 27 24 20 25 27 26 29 29 29 29 32 33 34 35 35 33 32 33 33 33 31 29 29 27 17 11 13 349 246 268 268 274 288 276 262 255 247 235 234 233 226 227
77 58 49 51 49 41 29 25 25 23 26 27 26 25 25 26 26 25 26 27 27 29 26 26 29 32 31 28 28 28 26 22 21 23 15 299 294 285 291 295 286 276 258 251 244 240 233 232 230
81 66 58 59 46 35 24 22 22 21 24 23 20 20 21 20 20 19 19 18 18 20 22 27 28 30 29 27 26 29 30 27 16 17 347 322 327 326 318 307 300 289 269 272 261 246 237 235 232
110 89 70 57 47 27 18 14 17 19 19 19 17 16 19 18 16 14 15 16 16 19 23 25 22 22 22 21 22 27 32 29 19 18 2 328 330 336 327 314 306 295 279 274 273 251 240 239 235
107 105 78 46 33 26 14 13 9 12 15 15 13 13 16 17 15 13 14 16 16 19 19 20 18 17 17 20 26 28 26 22 21 16 6 346 330 325 325 321 321 301 286 275 270 252 239 237 236
76 59 60 13 10 22 11 1 360 4 8 9 8 8 9 9 13 13 15 18 21 21 18 15 14 14 17 22 27 26 24 21 19 14 11 360 348 334 324 320 320 299 287 275 265 250 239 245 240
136 21 22 347 350 354 354 346 349 359 5 3 5 5 1 1 8 12 13 15 21 18 12 9 10 10 10 12 16 16 15 16 16 13 4 355 339 330 329 326 317 303 283 268 262 253 244 245 248
168 268 356 341 341 335 334 335 339 350 357 354 360 1 0 3 3 5 7 10 9 8 2 360 3 0 360 358 355 358 359 1 4 4 358 348 336 328 326 321 318 319 295 280 270 263 254 249 251
233 248 356 309 302 315 322 327 331 338 348 354 353 354 359 5 2 2 2 360 359 359 356 353 355 354 354 351 349 347 349 351 349 354 352 341 329 319 318 315 308 308 302 291 278 271 263 261 259
253 265 275 279 290 304 309 317 324 336 343 346 350 351 351 358 360 359 354 353 353 352 355 353 351 350 346 342 340 337 338 342 342 343 345 336 326 317 314 309 302 299 296 290 280 271 266 265 264
243 255 266 274 289 297 306 312 317 328 338 343 348 350 351 354 356 353 348 347 348 349 348 348 349 346 341 333 330 327 327 328 328 332 336 325 317 313 311 309 306 304 300 295 286 281 274 272 271
240 252 268 273 278 286 297 308 309 322 330 335 341 347 352 350 347 346 344 341 343 342 340 340 342 341 338 332 325 321 320 321 318 319 323 322 318 316 312 306 302 298 294 292 288 284 279 275 272
252 253 268 275 275 279 294 306 312 319 326 334 335 341 343 342 338 338 337 335 337 338 336 334 333 334 335 332 330 327 322 319 317 316 315 317 317 311 309 305 301 298 295 292 289 286 284 283 278
261 264 270 271 274 282 294 303 312 318 317 322 329 333 332 334 334 334 335 332 332 333 333 330 328 329 330 329 326 323 322 324 321 315 312 313 316 313 308 313 309 304 301 296 291 287 285 282 279
262 269 270 279 281 282 289 297 307 311 317 314 317 324 324 328 330 332 333 334 333 333 332 330 329 330 330 329 326 322 322 321 318 313 309 310 312 313 308 307 306 302 301 298 294 288 283 281 277
255 257 265 274 276 280 286 288 296 308 316 306 309 322 325 327 327 330 332 330 331 332 334 334 333 333 333 332 329 323 319 316 315 313 310 311 311 312 310 306 304 301 303 302 298 292 285 283 279
247 250 254 262 271 281 281 286 296 307 314 306 312 317 322 328 329 327 329 329 330 332 334 334 332 333 334 333 327 321 315 312 311 311 309 307 305 307 307 308 305 303 300 298 296 293 285 282 281
247 254 260 265 270 279 283 288 296 304 300 300 306 314 313 315 317 320 324 325 326 329 330 331 328 329 330 328 326 322 317 312 310 309 309 307 304 303 303 303 302 301 301 296 294 292 287 283 281
252 261 265 266 269 270 275 284 289 294 292 294 302 310 314 318 316 317 323 325 326 326 325 323 323 322 321 320 319 318 318 312 309 307 305 305 305 302 299 299 300 298 298 298 296 293 288 284 280
Height
5914 5913 5913 5913 5913 5911 5909 5909 5908 5908 5907 5905 5904 5903 5902 5901 5901 5901 5898 5896 5895 5894 5894 5894 5893 5893 5893 5892 5892 5892 5891 5891 5891 5892 5892 5892 5893 5893 5893 5894 5894 5894 5895 5895 5895 5896 5896 5896 5896
5915 5915 5915 5915 5913 5912 5911 5910 5909 5909 5907 5906 5905 5904 5903 5901 5900 5899 5897 5897 5896 5895 5895 5894 5894 5893 5893 5892 5892 5892 5891 5891 5891 5892 5892 5892 5893 5893 5893 5893 5894 5894 5894 5895 5895 5895 5896 5896 5895
5917 5917 5917 5915 5914 5913 5912 5911 5910 5909 5908 5907 5906 5905 5904 5902 5900 5899 5898 5897 5897 5896 5895 5895 5894 5894 5893 5892 5892 5892 5891 5891 5891 5891 5891 5892 5892 5892 5893 5893 5893 5893 5894 5894 5895 5895 5895 5895 5895
5919 5919 5918 5917 5915 5915 5914 5913 5912 5910 5909 5908 5907 5906 5904 5903 5901 5900 5899 5898 5897 5897 5896 5895 5895 5894 5893 5893 5892 5892 5891 5891 5891 5891 5891 5891 5892 5892 5892 5892 5893 5893 5893 5894 5894 5894 5895 5895 5895
5921 5920 5919 5918 5916 5916 5915 5914 5914 5912 5910 5909 5908 5906 5905 5903 5901 5900 5899 5898 5898 5897 5897 5895 5895 5894 5893 5893 5892 5892 5891 5891 5891 5891 5891 5891 5891 5891 5891 5892 5892 5892 5893 5893 5894 5894 5894 5894 5894
5923 5921 5921 5919 5918 5917 5916 5916 5916 5914 5912 5910 5908 5907 5905 5904 5902 5901 5899 5898 5898 5898 5897 5896 5895 5894 5893 5893 5892 5891 5891 5891 5890 5890 5890 5890 5890 5891 5890 5891 5891 5891 5892 5892 5892 5893 5893 5893 5894
5924 5923 5921 5920 5920 5919 5918 5917 5916 5915 5913 5911 5910 5908 5906 5905 5903 5901 5900 5899 5898 5898 5897 5896 5895 5894 5893 5893 5892 5891 5891 5890 5890 5890 5889 5889 5890 5890 5890 5890 5890 5890 5891 5891 5891 5891 5892 5892 5893
5924 5924 5923 5922 5922 5920 5919 5918 5917 5916 5915 5913 5911 5909 5907 5906 5904 5902 5901 5900 5899 5899 5898 5897 5896 5894 5893 5893 5892 5891 5890 5889 5889 5889 5888 5888 5888 5889 5889 5889 5889 5889 5889 5889 5890 5890 5890 5891 5891
5925 5926 5924 5924 5923 5922 5921 5920 5919 5917 5916 5914 5912 5910 5908 5906 5905 5904 5903 5901 5900 5899 5898 5897 5896 5895 5893 5892 5891 5891 5890 5889 5888 5888 5887 5887 5887 5887 5888 5888 5888 5888 5888 5888 5888 5888 5889 5890 5890
5926 5926 5926 5926 5925 5923 5922 5921 5920 5918 5917 5915 5913 5911 5909 5907 5906 5905 5903 5902 5901 5900 5899 5897 5896 5895 5894 5892 5891 5890 5889 5889 5888 5887 5887 5887 5887 5887 5887 5887 5887 5886 5886 5886 5886 5887 5887 5888 5889
5927 5927 5928 5927 5926 5925 5924 5922 5921 5919 5918 5916 5914 5912 5910 5909 5907 5906 5904 5903 5902 5900 5899 5898 5896 5895 5894 5893 5892 5890 5889 5888 5887 5887 5886 5886 5886 5886 5886 5885 5885 5885 5884 5884 5885 5885 5885 5886 5887
5929 5928 5928 5927 5926 5926 5924 5923 5922 5920 5919 5917 5915 5913 5911 5909 5908 5906 5905 5903 5902 5901 5900 5898 5897 5896 5894 5893 5891 5890 5889 5888 5887 5886 5886 5886 5886 5885 5885 5884 5884 5884 5883 5883 5883 5883 5884 5885 5885
5929 5929 5929 5928 5927 5926 5925 5924 5923 5921 5920 5918 5915 5914 5912 5910 5908 5906 5905 5903 5902 5901 5900 5898 5897 5896 5894 5893 5892 5890 5889 5888 5887 5886 5886 5886 5885 5885 5884 5883 5883 5882 5882 5881 5881 5882 5882 5883 5884
5930 5930 5929 5929 5928 5927 5926 5925 5924 5922 5920 5918 5916 5914 5912 5911 5909 5907 5905 5904 5902 5901 5899 5898 5897 5896 5894 5893 5892 5890 5889 5887 5886 5886 5885 5885 5884 5884 5883 5883 5882 5881 5880 5880 5880 5880 5881 5881 5882
5930 5930 5930 5929 5928 5927 5927 5926 5924 5923 5921 5919 5917 5915 5913 5911 5910 5908 5906 5904 5902 5901 5899 5898 5897 5895 5894 5893 5891 5890 5888 5887 5886 5886 5885 5884 5884 5883 5882 5882 5880 5880 5879 5879 5879 5879 5879 5880 5880
5931 5931 5930 5929 5928 5927 5928 5927 5924 5923 5921 5920 5918 5916 5914 5912 5910 5908 5906 5904 5901 5900 5899 5898 5897 5895 5894 5892 5891 5889 5888 5887 5886 5885 5884 5883 5883 5882 5881 5880 5879 5879 5878 5878 5878 5878 5878 5878 5879
5931 5930 5929 5929 5928 5927 5927 5926 5925 5923 5921 5920 5919 5917 5915 5913 5911 5909 5906 5904 5901 5900 5899 5898 5896 5895 5893 5892 5891 5889 5888 5887 5885 5885 5883 5882 5882 5881 5880 5879 5878 5877 5877 5877 5877 5877 5877 5877 5877
5930 5929 5928 5928 5928 5927 5926 5926 5925 5923 5922 5921 5919 5917 5915 5913 5911 5909 5907 5905 5902 5901 5900 5898 5896 5895 5893 5892 5891 5889 5888 5886 5885 5884 5882 5881 5881 5880 5879 5878 5877 5877 5876 5876 5876 5876 5876 5876 5875
5929 5928 5928 5927 5927 5926 5925 5925 5925 5923 5921 5920 5918 5917 5914 5913 5911 5909 5907 5905 5903 5901 5900 5898 5896 5894 5893 5891 5890 5888 5887 5886 5884 5883 5882 5881 5880 5879 5878 5878 5877 5876 5875 5875 5874 5874 5874 5874 5874
5928 5928 5927 5927 5927 5926 5924 5924 5923 5922 5920 5919 5917 5916 5914 5913 5911 5909 5907 5906 5904 5901 5899 5898 5895 5894 5892 5890 5889 5888 5886 5885 5883 5882 5881 5880 5879 5878 5877 5877 5876 5875 5874 5873 5873 5873 5872 5872 5872
5927 5927 5927 5926 5926 5925 5924 5922 5921 5921 5920 5917 5916 5915 5913 5912 5910 5909 5907 5905 5903 5901 5899 5897 5894 5892 5891 5889 5888 5886 5885 5884 5882 5881 5880 5879 5877 5877 5876 5875 5874 5873 5872 5872 5871 5871 5871 5870 5870
5926 5925 5925 5925 5925 5924 5924 5922 5921 5919 5918 5916 5915 5913 5912 5910 5909 5907 5905 5904 5902 5900 5898 5896 5894 5891 5889 5888 5886 5885 5884 5882 5881 5880 5878 5877 5876 5875 5874 5873 5872 5871 5871 5870 5869 5868 5868 5867 5867
5924 5924 5924 5924 5923 5923 5923 5921 5920 5918 5917 5915 5913 5912 5910 5908 5907 5906 5904 5902 5901 5898 5896 5894 5892 5890 5888 5886 5884 5883 5882 5880 5879 5878 5877 5875 5874 5873 5871 5871 5870 5869 5868 5867 5866 5866 5865 5865 5864
5922 5922 5922 5922 5922 5922 5921 5919 5918 5916 5915 5913 5912 5911 5909 5908 5906 5904 5902 5899 5898 5896 5894 5892 5890 5888 5886 5884 5882 5881 5879 5878 5877 5876 5875 5873 5872 5870 5869 5868 5867 5866 5865 5864 5863 5863 5862 5861 5861
5920 5921 5921 5921 5920 5920 5919 5917 5917 5915 5912 5911 5910 5910 5908 5906 5904 5902 5900 5897 5896 5894 5892 5890 5888 5886 5884 5882 5880 5878 5877 5876 5875 5873 5872 5871 5870 5868 5867 5865 5864 5863 5862 5861 5860 5859 5858 5858 5857
5918 5919 5919 5919 5918 5917 5916 5915 5915 5912 5910 5909 5908 5908 5907 5905 5903 5901 5899 5896 5894 5893 5889 5887 5886 5884 5882 5880 5878 5876 5875 5873 5872 5871 5869 5868 5867 5865 5864 5862 5861 5860 5858 5857 5856 5855 5854 5854 5853
5915 5916 5916 5916 5915 5914 5913 5912 5912 5910 5908 5907 5907 5906 5905 5902 5901 5899 5897 5895 5893 5890 5888 5886 5884 5882 5880 5878 5876 5874 5873 5871 5870 5868 5867 5865 5864 5862 5861 5859 5858 5856 5855 5854 5852 5851 5850 5849 5848
5912 5913 5913 5912 5912 5911 5910 5909 5909 5908 5907 5905 5905 5904 5902 5901 5899 5897 5895 5893 5890 5888 5886 5884 5882 5880 5878 5876 5874 5872 5870 5869 5867 5866 5864 5863 5861 5859 5858 5856 5854 5853 5852 5850 5848 5846 5845 5844 5844
5910 5910 5909 5909 5908 5907 5906 5908 5906 5905 5904 5903 5902 5901 5900 5899 5897 5895 5893 5891 5888 5886 5884 5881 5879 5877 5876 5874 5872 5870 5867 5866 5864 5862 5861 5859 5858 5856 5854 5852 5851 5849 5847 5846 5844 5842 5840 5839 5838
5906 5906 5905 5906 5905 5904 5903 5906 5902 5902 5901 5900 5899 5899 5897 5896 5894 5892 5890 5888 5886 5884 5882 5879 5877 5875 5873 5871 5869 5867 5864 5862 5861 5859 5857 5855 5854 5852 5850 5848 5846 5844 5843 5841 5839 5837 5835 5834 5833